Location: Unspecified
(0.0000°N, 0.0000°E)
Time: 14:37:29
(UTC+01:00)

Ariane H10+ - Visible Passes

Search period start: 25 March 2017 00:00
Search period end: 04 April 2017 01:00
Orbit: 306 x 31343 km, 6.9° (Epoch: 23 March)

Date Brightness Start Highest point End Pass type
(mag) Time Alt. Az. Time Alt. Az. Time Alt. Az.
25 Mar 6.7 03:14:23 10° W 05:13:42 29° W 11:16:58 10° ENE visible
25 Mar 7.6 20:45:58 10° W 21:00:24 76° S 06:12:18 10° E visible
27 Mar 8.8 01:28:39 10° W 04:02:10 66° WSW 09:54:35 10° ENE visible
27 Mar 5.6 19:23:27 10° W 19:28:40 74° S 03:27:06 10° E visible
28 Mar 8.5 23:00:00 10° W 23:30:44 79° S 07:29:25 10° E visible
30 Mar 7.7 02:50:31 10° W 05:18:50 44° W 11:07:29 10° ENE visible
30 Mar 6.8 20:35:58 10° W 20:45:06 74° S 04:56:25 10° E visible
01 Apr 8.8 00:15:00 10° W 03:05:59 82° SW 08:43:48 10° ENE visible
01 Apr 10.7 23:20:09 10° E 00:43:39 14° E 01:38:52 10° E visible
02 Apr 6.5 04:24:40 10° W 06:34:07 23° W 12:19:28 10° ENE visible
02 Apr 7.9 21:48:34 10° W 22:05:36 76° S 06:15:50 10° E visible
